Showing default

ORBCOMM FM 14, 25419

Orbit data source: Space-Track

ORBCOMM FM 14, 25419 is a payload satellite owned by Orbcomm (US) in LEO that was launched on Sun, 02 Aug 1998 UTC via a PEGASUS XL/HAPS launch vehicle from the Pegasus Launch, Eastern Range Air Space (ERAS). Payload-class satellites include a variety of spacecraft equipped with specific instruments for various scientific and technological missions. These include communications satellites like Starlink; space stations such as the ISS; scientific satellites like the Hubble; Earth observation satellites from companies like Planet Labs, Umbra, and HawkEye 360; GPS; miniature CubeSats for education and research; and military/defense satellites.

Loading next visibility...
Identifier
25419, 1998-046G
Orbit
LEO
Country
Flag of USUS / ORB
Related business
Manufacturer
OSC-Germantown
Mission
Non-operational Commercial Communications
Bus & Motor
MICROSTAR, Unknown motor
Mass
42 kg wet, 42 kg dry
Launch date (UTC)
1998-08-02 (28 years ago)
Launch vehicle
PEGASUS XL/HAPS
Launch site
Pegasus Launch, Eastern Range Air Space (ERAS)
Object type
Payload
Rocket body
Debris
Shape & HBR
Cyl + 2 Pan, 4.2 m
Radar Cross Section
1.484 m², Medium (>0.1 m² and < 1m²)

Expand to show TLE details & history
Last TLE update: 4 days ago

TLE from 4 days ago
0 ORBCOMM FM 14
1 25419U 98046G   26169.88005589  .00000561  00000-0  22094-3 0  9997
2 25419  44.9947 233.0936 0003732 295.0098  65.0363 14.40139247457053
Epoch: 2026-06-18T21:07Z
TLE epoch observation values (Epoch: 2026-06-18T21:07:16.828Z)
Latitude
-0.00005°
Longitude
9.15639°
Altitude
756.914 km
Speed
7.478 km/s
True Right ascension
15h 32m 22s
True Declination
0° 00' 00"
Sunlit
Object was in full shadow at epoch
Visualization orbit readout
Latitude
Unknown
Longitude
Unknown
Altitude
Unknown
Speed
Unknown
Apparent Right ascension
Unknown
Apparent Declination
Unknown
Sunlit
N/A
Visualization observer readout
Local Sidereal Time
00:51:04
Azimuth
Unknown
Elevation
Unknown
Doppler factor
Unknown
Orbital elements
Apogee altitude
762.251 km
Perigee altitude
756.923 km
Semi-major axis
7,137.724 km
Eccentricity
0.00037
Inclination
44.9947°
RAAN
233.0936°
Arg. of periapsis
295.0098°
True anomaly
65.07508°
Mean anomaly
65.0363°
Eccentric anomaly
65.05569°
Mean motion
3.59918 °/min
Orbital period
100.02 mins
BSTAR
0.00022094
Loading maneuver chart data...
Computing Atmospheric mass density...

Documentation

Showing up to 5 results
|